Flag for Germany Weather past 2 weeks in Haltern am See, North Rhine-Westphalia, Germany

Now
57 °F

Fog.


Feels Like: 57 °F
Forecast: 52 / 71 °F
Wind: 1 mph from Southeast

Location: Muenster / Osnabrueck

Current Time: Oct 2, 2014 at 4:50:38 AM

Latest Report: Oct 2, 2014 at 4:00 AM


Visibility: 2 mi

Pressure: 30.36 "Hg

Humidity: 94%

Dew point: 55 °F

Location of Haltern am SeeLocation

Historic Weather in Haltern am See — Graph

°F

Haltern am See temperature yesterday

Maximum temperature yesterday: 66 °F (at 3:00 PM)
Minimum temperature yesterday: 51 °F (at 2:00 AM)
Average temperature yesterday: 57 °F

Past Weeks' High & Low Weather Summary

 TemperatureHumidityPressure
High79 °F (Sep 18, 3:00 PM)100% (Sep 20, 4:00 AM)30.40 "Hg (Sep 20, 4:00 AM)
Low42 °F (Sep 23, 6:00 AM)49% (Sep 18, 3:00 PM)29.81 "Hg (Sep 24, 6:00 PM)
Average59 °F85%30.09 "Hg
* Reported Sep 17 4:00 AM — Oct 2 4:00 AM, Haltern am See, Weather by CustomWeather, © 2014

Note: Actual official high and low records may vary slightly from our data, if they occured in-between our weather recording intervals... More about our weather records

Advertising

Haltern am See weather history for previous 24 hours

 ConditionsComfort  
Time TempWeatherWind HumidityBarometerVisibility
4:00 AM
Oct 2
57 °FFog.1 mph94%30.36 "Hg2 mi
3:00 AM56 °FFog.1 mph94%30.37 "Hg2 mi
2:00 AM56 °FFog.1 mph95%30.37 "Hg2 mi
1:00 AM56 °FFog.1 mph95%30.36 "Hg2 mi
12:00 AM54 °FFog.1 mph98%30.36 "Hg2 mi
11:00 PM
Oct 1
53 °FFog.1 mph96%30.35 "Hg1 mi
10:00 PM55 °FFog.No wind98%30.34 "Hg1 mi
9:00 PM56 °FFog.1 mph96%30.33 "Hg4 mi
8:00 PM58 °FFog.1 mph92%30.33 "Hg4 mi
7:00 PM62 °FPartly sunny.1 mph77%30.32 "Hg6 mi
6:00 PM65 °FScattered clouds.3 mph70%30.32 "Hg6 mi
5:00 PM64 °FOvercast.3 mph73%30.31 "Hg6 mi
4:00 PM65 °FPartly sunny.5 mph70%30.31 "Hg6 mi
3:00 PM66 °FPartly sunny.5 mph68%30.31 "Hg6 mi
2:00 PM65 °FScattered clouds.5 mph75%30.32 "Hg6 mi
1:00 PM64 °FPartly sunny.3 mph80%30.32 "Hg4 mi
12:00 PM62 °FFog.2 mph86%30.31 "Hg4 mi
11:00 AM60 °FFog.1 mph87%30.31 "Hg3 mi
10:00 AM57 °FFog.1 mph94%30.31 "Hg2 mi
9:00 AM54 °FFog.1 mph95%30.30 "Hg2 mi
8:00 AM53 °FFog.1 mph97%30.29 "Hg1 mi
7:00 AM54 °FFog.1 mph97%30.29 "Hg2 mi
6:00 AM54 °FFog.1 mph97%30.29 "Hg2 mi
5:00 AM53 °FFog.1 mph97%30.29 "Hg2 mi
4:00 AM54 °FFog.1 mph97%30.29 "Hg1 mi
Weather by CustomWeather, © 2014

See weather overviewHow to use our weather pages